Time,TemperatureF,DewpointF,PressureIn,WindDirection,WindDirectionDegrees,WindSpeedMPH,WindSpeedGustMPH,Humidity,HourlyPrecipIn,Conditions,Clouds,dailyrainin,SolarRadiationWatts/m^2,SoftwareType,DateUTC
2013-04-07 00:02:00,55.7,47.9,29.70,WSW,242,18.4,18.4,75,0.02,RA,,0.00,0.0,WeatherDisplay:10.37,2013-04-07 05:02:00,
2013-04-07 00:07:00,55.4,48.0,29.69,SSW,210,11.5,11.5,76,0.02,RA,,0.00,0.0,WeatherDisplay:10.37,2013-04-07 05:07:00,
2013-04-07 00:12:00,55.1,48.0,29.68,SSW,208,9.2,9.2,77,0.02,OVC,,0.00,0.0,WeatherDisplay:10.37,2013-04-07 05:12:00,
2013-04-07 00:17:00,55.0,47.9,29.68,SSW,209,11.5,11.5,77,0.02,OVC,,0.00,0.0,WeatherDisplay:10.37,2013-04-07 05:17:00,
2013-04-07 00:22:00,55.0,47.9,29.68,SW,217,16.1,16.1,77,0.01,OVC,,0.00,0.0,WeatherDisplay:10.37,2013-04-07 05:22:00,
2013-04-07 00:27:00,55.2,47.8,29.67,SSW,197,17.3,17.3,76,0.01,OVC,,0.00,0.0,WeatherDisplay:10.37,2013-04-07 05:27:00,
2013-04-07 00:32:00,55.6,47.4,29.67,SSW,205,23.0,23.0,74,0.01,BKN,,0.00,0.0,WeatherDisplay:10.37,2013-04-07 05:32:00,
2013-04-07 00:37:00,56.0,47.1,29.67,SSW,211,20.7,20.7,72,0.01,BKN,,0.00,0.0,WeatherDisplay:10.37,2013-04-07 05:37:00,
2013-04-07 00:42:00,55.8,46.9,29.67,SSW,200,18.4,18.4,72,0.01,BKN,,0.00,0.0,WeatherDisplay:10.37,2013-04-07 05:42:00,
2013-04-07 00:47:00,55.2,46.7,29.67,SW,228,15.0,15.0,73,0.01,BKN,,0.00,0.0,WeatherDisplay:10.37,2013-04-07 05:47:00,
2013-04-07 00:52:00,55.1,46.6,29.67,SW,222,12.7,12.7,73,0.00,BKN,,0.00,0.0,WeatherDisplay:10.37,2013-04-07 05:52:00,
2013-04-07 00:57:00,55.0,46.9,29.67,SW,221,13.8,13.8,74,0.00,BKN,,0.00,0.0,WeatherDisplay:10.37,2013-04-07 05:57:00,
2013-04-07 01:02:00,55.0,46.5,29.67,SSW,204,13.0,13.0,73,0.00,BKN,,0.00,0.0,WeatherDisplay:10.37,2013-04-07 06:02:00,
2013-04-07 01:07:00,55.1,46.6,29.67,SSW,201,18.4,18.4,73,0.00,BKN,,0.00,0.0,WeatherDisplay:10.37,2013-04-07 06:07:00,
2013-04-07 01:12:00,55.2,46.7,29.67,SW,227,19.6,19.6,73,0.00,BKN,,0.00,0.0,WeatherDisplay:10.37,2013-04-07 06:12:00,
2013-04-07 01:17:00,55.2,46.7,29.67,SW,218,17.3,17.3,73,0.00,BKN,,0.00,0.0,WeatherDisplay:10.37,2013-04-07 06:17:00,
2013-04-07 01:23:00,55.0,46.9,29.67,SSW,208,13.8,13.8,74,0.00,BKN,,0.00,0.0,WeatherDisplay:10.37,2013-04-07 06:23:00,
2013-04-07 01:28:00,54.8,46.7,29.67,WSW,242,17.3,17.3,74,0.00,BKN,,0.00,0.0,WeatherDisplay:10.37,2013-04-07 06:28:00,
2013-04-07 01:33:00,54.5,46.7,29.68,SW,225,16.1,16.1,75,0.00,SCT,,0.00,0.0,WeatherDisplay:10.37,2013-04-07 06:33:00,
2013-04-07 01:38:00,54.2,46.8,29.68,SW,232,18.4,18.4,76,0.00,SCT,,0.00,0.0,WeatherDisplay:10.37,2013-04-07 06:38:00,
2013-04-07 01:43:00,54.0,47.0,29.68,SW,225,16.1,16.1,77,0.00,SCT,,0.00,0.0,WeatherDisplay:10.37,2013-04-07 06:43:00,
2013-04-07 01:48:00,53.7,46.7,29.68,SW,226,16.1,16.1,77,0.00,SCT,,0.00,0.0,WeatherDisplay:10.37,2013-04-07 06:48:00,
2013-04-07 01:53:00,53.8,46.8,29.68,SW,236,18.4,18.4,77,0.00,SCT,,0.00,0.0,WeatherDisplay:10.37,2013-04-07 06:53:00,
2013-04-07 01:58:00,53.6,46.6,29.69,WSW,248,17.3,17.3,77,0.00,SCT,,0.00,0.0,WeatherDisplay:10.37,2013-04-07 06:58:00,
2013-04-07 02:03:00,53.6,46.9,29.69,WSW,239,20.7,20.7,78,0.00,CLR,,0.00,0.0,WeatherDisplay:10.37,2013-04-07 07:03:00,
2013-04-07 02:08:00,53.4,46.7,29.69,WSW,244,15.0,15.0,78,0.00,CLR,,0.00,0.0,WeatherDisplay:10.37,2013-04-07 07:08:00,
2013-04-07 02:13:00,53.3,47.0,29.69,WSW,254,17.3,17.3,79,0.00,CLR,,0.00,0.0,WeatherDisplay:10.37,2013-04-07 07:13:00,
2013-04-07 02:18:00,53.1,47.1,29.69,SW,236,16.1,16.1,80,0.00,CLR,,0.00,0.0,WeatherDisplay:10.37,2013-04-07 07:18:00,
2013-04-07 02:23:00,53.0,47.0,29.70,WSW,250,18.4,18.4,80,0.00,CLR,,0.00,0.0,WeatherDisplay:10.37,2013-04-07 07:23:00,
2013-04-07 02:28:00,52.8,47.1,29.70,WSW,255,24.2,24.2,81,0.00,CLR,,0.00,0.0,WeatherDisplay:10.37,2013-04-07 07:28:00,
2013-04-07 02:33:00,52.4,46.7,29.71,WSW,257,20.7,20.7,81,0.00,CLR,,0.00,0.0,WeatherDisplay:10.37,2013-04-07 07:33:00,
2013-04-07 02:38:00,51.9,46.3,29.71,WSW,243,18.4,18.4,81,0.00,CLR,,0.00,0.0,WeatherDisplay:10.37,2013-04-07 07:38:00,
2013-04-07 02:43:00,51.6,46.3,29.71,WSW,254,12.7,12.7,82,0.00,CLR,,0.00,0.0,WeatherDisplay:10.37,2013-04-07 07:43:00,
2013-04-07 02:48:00,51.2,45.9,29.71,West,276,18.4,18.4,82,0.00,BKN,,0.00,0.0,WeatherDisplay:10.37,2013-04-07 07:48:00,
2013-04-07 02:53:00,50.8,45.8,29.72,WSW,248,21.0,21.0,83,0.00,BKN,,0.00,0.0,WeatherDisplay:10.37,2013-04-07 07:53:00,
2013-04-07 02:58:00,50.5,45.5,29.72,SW,236,17.3,17.3,83,0.00,BKN,,0.00,0.0,WeatherDisplay:10.37,2013-04-07 07:58:00,
2013-04-07 03:03:00,50.3,45.6,29.72,WSW,250,11.5,11.5,84,0.00,OVC,,0.00,0.0,WeatherDisplay:10.37,2013-04-07 08:03:00,
2013-04-07 03:08:00,50.1,45.5,29.73,West,263,11.5,11.5,84,0.00,OVC,,0.00,0.0,WeatherDisplay:10.37,2013-04-07 08:08:00,
2013-04-07 03:13:00,50.0,45.4,29.73,SW,229,13.8,13.8,84,0.00,OVC,,0.00,0.0,WeatherDisplay:10.37,2013-04-07 08:13:00,
2013-04-07 03:18:00,49.9,45.3,29.73,West,277,16.1,16.1,84,0.00,OVC,,0.00,0.0,WeatherDisplay:10.37,2013-04-07 08:18:00,
2013-04-07 03:23:00,49.9,45.3,29.73,WSW,254,13.8,13.8,84,0.00,OVC,,0.00,0.0,WeatherDisplay:10.37,2013-04-07 08:23:00,
2013-04-07 03:28:00,49.8,44.8,29.73,WSW,244,16.1,16.1,83,0.00,OVC,,0.00,0.0,WeatherDisplay:10.37,2013-04-07 08:28:00,
2013-04-07 03:33:00,49.8,44.8,29.73,West,281,15.0,15.0,83,0.00,OVC,,0.00,0.0,WeatherDisplay:10.37,2013-04-07 08:33:00,
2013-04-07 03:38:00,49.7,44.7,29.73,West,277,13.8,13.8,83,0.00,OVC,,0.00,0.0,WeatherDisplay:10.37,2013-04-07 08:38:00,
2013-04-07 03:43:00,49.8,44.8,29.74,SW,225,17.3,17.3,83,0.00,OVC,,0.00,0.0,WeatherDisplay:10.37,2013-04-07 08:43:00,
2013-04-07 03:48:00,49.8,44.8,29.74,West,270,13.0,13.0,83,0.00,OVC,,0.00,0.0,WeatherDisplay:10.37,2013-04-07 08:48:00,
2013-04-07 03:53:00,49.8,44.8,29.74,WSW,242,10.4,10.4,83,0.00,OVC,,0.00,0.0,WeatherDisplay:10.37,2013-04-07 08:53:00,
2013-04-07 03:58:00,49.7,44.7,29.74,WSW,241,11.5,11.5,83,0.00,OVC,,0.00,0.0,WeatherDisplay:10.37,2013-04-07 08:58:00,
2013-04-07 04:03:00,49.7,44.7,29.75,SW,236,9.2,9.2,83,0.00,OVC,,0.00,0.0,WeatherDisplay:10.37,2013-04-07 09:03:00,
2013-04-07 04:08:00,49.6,45.0,29.75,SW,234,8.1,8.1,84,0.00,OVC,,0.00,0.0,WeatherDisplay:10.37,2013-04-07 09:08:00,
2013-04-07 04:13:00,49.6,45.3,29.75,WNW,285,9.2,9.2,85,0.00,OVC,,0.00,0.0,WeatherDisplay:10.37,2013-04-07 09:13:00,
2013-04-07 04:18:00,49.5,45.2,29.76,WNW,286,8.1,8.1,85,0.00,OVC,,0.00,0.0,WeatherDisplay:10.37,2013-04-07 09:18:00,
2013-04-07 04:23:00,49.3,44.4,29.76,WNW,289,17.3,17.3,83,0.00,OVC,,0.00,0.0,WeatherDisplay:10.37,2013-04-07 09:23:00,
2013-04-07 04:29:00,48.5,43.3,29.77,WNW,292,18.4,18.4,82,0.00,OVC,,0.00,0.0,WeatherDisplay:10.37,2013-04-07 09:29:00,
2013-04-07 04:34:00,47.9,43.0,29.77,NW,308,15.0,15.0,83,0.00,OVC,,0.00,0.0,WeatherDisplay:10.37,2013-04-07 09:34:00,
2013-04-07 04:39:00,47.6,42.7,29.77,WSW,243,15.0,15.0,83,0.00,OVC,,0.00,0.0,WeatherDisplay:10.37,2013-04-07 09:39:00,
2013-04-07 04:44:00,47.4,42.5,29.78,WNW,303,18.4,18.4,83,0.00,OVC,,0.00,0.0,WeatherDisplay:10.37,2013-04-07 09:44:00,
2013-04-07 04:50:00,47.3,42.4,29.78,West,273,10.4,10.4,83,0.00,OVC,,0.00,0.0,WeatherDisplay:10.37,2013-04-07 09:50:00,
2013-04-07 04:55:00,47.3,42.4,29.78,West,259,9.2,9.2,83,0.00,OVC,,0.00,0.0,WeatherDisplay:10.37,2013-04-07 09:55:00,
2013-04-07 05:00:00,47.3,42.4,29.79,WNW,286,11.5,11.5,83,0.00,OVC,,0.00,0.0,WeatherDisplay:10.37,2013-04-07 10:00:00,
2013-04-07 05:05:00,47.3,42.4,29.79,WNW,286,12.7,12.7,83,0.00,OVC,,0.00,0.0,WeatherDisplay:10.37,2013-04-07 10:05:00,
2013-04-07 05:10:00,47.3,42.4,29.79,WNW,289,15.0,15.0,83,0.00,OVC,,0.00,0.0,WeatherDisplay:10.37,2013-04-07 10:10:00,
2013-04-07 05:15:00,47.3,42.4,29.79,West,270,11.5,11.5,83,0.00,OVC,,0.00,0.0,WeatherDisplay:10.37,2013-04-07 10:15:00,
2013-04-07 05:20:00,47.2,42.3,29.79,West,278,8.1,8.1,83,0.00,OVC,,0.00,0.0,WeatherDisplay:10.37,2013-04-07 10:20:00,
2013-04-07 05:25:00,47.2,42.3,29.79,WNW,302,12.7,12.7,83,0.00,OVC,,0.00,0.0,WeatherDisplay:10.37,2013-04-07 10:25:00,
2013-04-07 05:30:00,47.0,41.8,29.80,NW,311,16.1,16.1,82,0.00,OVC,,0.00,0.0,WeatherDisplay:10.37,2013-04-07 10:30:00,
2013-04-07 05:35:00,46.8,41.6,29.80,West,260,8.1,8.1,82,0.00,OVC,,0.00,0.0,WeatherDisplay:10.37,2013-04-07 10:35:00,
2013-04-07 05:40:00,46.6,41.1,29.80,WNW,288,13.8,13.8,81,0.00,OVC,,0.00,0.0,WeatherDisplay:10.37,2013-04-07 10:40:00,
2013-04-07 05:45:00,46.4,40.9,29.80,WSW,239,19.6,19.6,81,0.00,OVC,,0.00,0.0,WeatherDisplay:10.37,2013-04-07 10:45:00,
2013-04-07 05:51:00,46.2,40.4,29.81,West,260,20.7,20.7,80,0.00,BKN,,0.00,0.0,WeatherDisplay:10.37,2013-04-07 10:51:00,
2013-04-07 05:56:00,46.0,40.2,29.81,West,273,19.6,19.6,80,0.00,BKN,,0.00,0.0,WeatherDisplay:10.37,2013-04-07 10:56:00,
2013-04-07 06:02:00,45.9,40.4,29.82,West,266,11.5,11.5,81,0.00,BKN,,0.00,0.0,WeatherDisplay:10.37,2013-04-07 11:02:00,
2013-04-07 06:07:00,45.7,40.2,29.82,WNW,297,12.0,12.0,81,0.00,BKN,,0.00,0.0,WeatherDisplay:10.37,2013-04-07 11:07:00,
2013-04-07 06:12:00,45.6,40.4,29.82,WNW,299,13.8,13.8,82,0.00,BKN,,0.00,0.0,WeatherDisplay:10.37,2013-04-07 11:12:00,
2013-04-07 06:17:00,45.4,40.2,29.82,West,265,11.5,11.5,82,0.00,BKN,,0.00,0.0,WeatherDisplay:10.37,2013-04-07 11:17:00,
2013-04-07 06:22:00,45.2,40.3,29.82,NW,309,10.4,10.4,83,0.00,BKN,,0.00,0.0,WeatherDisplay:10.37,2013-04-07 11:22:00,
2013-04-07 06:27:00,45.0,40.1,29.83,WNW,292,8.1,8.1,83,0.00,BKN,,0.00,0.0,WeatherDisplay:10.37,2013-04-07 11:27:00,
2013-04-07 06:32:00,44.9,40.0,29.83,SW,224,6.9,6.9,83,0.00,OVC,,0.00,5.0,WeatherDisplay:10.37,2013-04-07 11:32:00,
2013-04-07 06:37:00,44.8,40.3,29.83,WSW,239,12.0,12.0,84,0.00,OVC,,0.00,9.0,WeatherDisplay:10.37,2013-04-07 11:37:00,
2013-04-07 06:42:00,44.8,40.3,29.84,WSW,242,11.0,11.0,84,0.00,OVC,,0.00,14.0,WeatherDisplay:10.37,2013-04-07 11:42:00,
2013-04-07 06:47:00,44.8,40.6,29.84,WSW,244,8.1,8.1,85,0.00,OVC,,0.00,18.0,WeatherDisplay:10.37,2013-04-07 11:47:00,
2013-04-07 06:53:00,44.8,40.6,29.84,West,278,5.8,5.8,85,0.00,OVC,,0.00,19.0,WeatherDisplay:10.37,2013-04-07 11:53:00,
2013-04-07 06:58:00,44.7,40.5,29.85,WSW,256,7.0,7.0,85,0.00,OVC,,0.00,23.0,WeatherDisplay:10.37,2013-04-07 11:58:00,
2013-04-07 07:03:00,44.6,40.4,29.85,West,277,8.1,8.1,85,0.00,SCT,,0.00,28.0,WeatherDisplay:10.37,2013-04-07 12:03:00,
2013-04-07 07:08:00,44.5,40.3,29.85,West,279,8.1,8.1,85,0.00,SCT,,0.00,40.0,WeatherDisplay:10.37,2013-04-07 12:08:00,
2013-04-07 07:13:00,44.5,40.3,29.86,West,265,6.9,6.9,85,0.00,SCT,,0.00,46.0,WeatherDisplay:10.37,2013-04-07 12:13:00,
2013-04-07 07:18:00,44.5,40.3,29.86,West,275,6.9,6.9,85,0.00,SCT,,0.00,60.0,WeatherDisplay:10.37,2013-04-07 12:18:00,
2013-04-07 07:23:00,44.6,40.4,29.87,WSW,257,9.2,9.2,85,0.00,SCT,,0.00,69.0,WeatherDisplay:10.37,2013-04-07 12:23:00,
2013-04-07 07:28:00,44.7,40.5,29.87,NW,306,5.8,5.8,85,0.00,SCT,,0.00,104.0,WeatherDisplay:10.37,2013-04-07 12:28:00,
2013-04-07 07:33:00,44.8,40.6,29.87,WNW,285,10.0,10.0,85,0.00,SCT,,0.00,62.0,WeatherDisplay:10.37,2013-04-07 12:33:00,
2013-04-07 07:38:00,44.9,40.7,29.88,West,267,6.9,6.9,85,0.00,SCT,,0.00,70.0,WeatherDisplay:10.37,2013-04-07 12:38:00,
2013-04-07 07:43:00,45.0,40.8,29.88,SW,223,6.9,6.9,85,0.00,SCT,,0.00,84.0,WeatherDisplay:10.37,2013-04-07 12:43:00,
2013-04-07 07:48:00,45.1,40.6,29.88,West,270,5.8,5.8,84,0.00,BKN,,0.00,81.0,WeatherDisplay:10.37,2013-04-07 12:48:00,
2013-04-07 07:53:00,45.1,40.6,29.88,West,281,9.2,9.2,84,0.00,BKN,,0.00,102.0,WeatherDisplay:10.37,2013-04-07 12:53:00,
2013-04-07 07:58:00,45.3,40.7,29.88,West,273,9.2,9.2,84,0.00,BKN,,0.00,149.0,WeatherDisplay:10.37,2013-04-07 12:58:00,
2013-04-07 08:03:00,45.4,40.8,29.88,West,279,9.2,9.2,84,0.00,SCT,,0.00,123.0,WeatherDisplay:10.37,2013-04-07 13:03:00,
2013-04-07 08:08:00,45.6,41.0,29.89,WNW,296,13.8,13.8,84,0.00,SCT,,0.00,123.0,WeatherDisplay:10.37,2013-04-07 13:08:00,
2013-04-07 08:13:00,45.6,40.7,29.89,West,265,13.8,13.8,83,0.00,SCT,,0.00,120.0,WeatherDisplay:10.37,2013-04-07 13:13:00,
2013-04-07 08:19:00,45.8,40.9,29.89,WNW,299,11.5,11.5,83,0.00,SCT,,0.00,130.0,WeatherDisplay:10.37,2013-04-07 13:19:00,
2013-04-07 08:24:00,45.9,41.0,29.89,WNW,296,11.5,11.5,83,0.00,SCT,,0.00,149.0,WeatherDisplay:10.37,2013-04-07 13:24:00,
2013-04-07 08:29:00,45.9,41.0,29.90,WNW,295,11.5,11.5,83,0.00,SCT,,0.00,155.0,WeatherDisplay:10.37,2013-04-07 13:29:00,
2013-04-07 08:35:00,46.1,41.2,29.89,WNW,292,9.2,9.2,83,0.00,BKN,,0.00,137.0,WeatherDisplay:10.37,2013-04-07 13:35:00,
2013-04-07 08:40:00,46.5,41.3,29.90,West,275,11.5,11.5,82,0.00,BKN,,0.00,343.0,WeatherDisplay:10.37,2013-04-07 13:40:00,
2013-04-07 08:45:00,46.9,41.7,29.89,WNW,283,10.4,10.4,82,0.00,BKN,,0.00,392.0,WeatherDisplay:10.37,2013-04-07 13:45:00,
2013-04-07 08:50:00,47.3,41.4,29.90,WNW,296,11.5,11.5,80,0.00,OVC,,0.00,418.0,WeatherDisplay:10.37,2013-04-07 13:50:00,
2013-04-07 08:55:00,47.4,41.5,29.90,WNW,290,15.0,15.0,80,0.00,OVC,,0.00,199.0,WeatherDisplay:10.37,2013-04-07 13:55:00,
2013-04-07 09:00:00,47.6,41.4,29.90,WNW,287,11.5,11.5,79,0.00,OVC,,0.00,417.0,WeatherDisplay:10.37,2013-04-07 14:00:00,
2013-04-07 09:05:00,48.0,41.1,29.90,West,271,11.5,11.5,77,0.00,BKN,,0.00,455.0,WeatherDisplay:10.37,2013-04-07 14:05:00,
2013-04-07 09:10:00,48.1,41.6,29.90,West,280,13.8,13.8,78,0.00,BKN,,0.00,483.0,WeatherDisplay:10.37,2013-04-07 14:10:00,
2013-04-07 09:16:00,48.1,41.6,29.90,WNW,292,11.5,11.5,78,0.00,BKN,,0.00,476.0,WeatherDisplay:10.37,2013-04-07 14:16:00,
2013-04-07 09:21:00,48.5,41.6,29.90,NW,304,11.5,11.5,77,0.00,BKN,,0.00,515.0,WeatherDisplay:10.37,2013-04-07 14:21:00,
2013-04-07 09:26:00,48.6,41.4,29.90,NW,305,10.4,10.4,76,0.00,BKN,,0.00,504.0,WeatherDisplay:10.37,2013-04-07 14:26:00,
2013-04-07 09:31:00,48.8,41.6,29.90,WNW,282,15.0,15.0,76,0.00,BKN,,0.00,517.0,WeatherDisplay:10.37,2013-04-07 14:31:00,
2013-04-07 09:36:00,49.1,41.5,29.90,SW,229,10.4,10.4,75,0.00,BKN,,0.00,540.0,WeatherDisplay:10.37,2013-04-07 14:36:00,
2013-04-07 09:41:00,49.3,41.4,29.90,SW,236,11.5,11.5,74,0.00,BKN,,0.00,533.0,WeatherDisplay:10.37,2013-04-07 14:41:00,
2013-04-07 09:46:00,49.5,41.6,29.91,NNW,330,11.5,11.5,74,0.00,SCT,,0.00,564.0,WeatherDisplay:10.37,2013-04-07 14:46:00,
2013-04-07 09:52:00,49.7,42.1,29.91,NW,310,11.5,11.5,75,0.00,SCT,,0.00,594.0,WeatherDisplay:10.37,2013-04-07 14:52:00,
2013-04-07 09:58:00,50.0,42.0,29.91,NW,319,9.2,9.2,74,0.00,SCT,,0.00,612.0,WeatherDisplay:10.37,2013-04-07 14:58:00,
2013-04-07 10:03:00,50.2,42.2,29.92,NW,321,10.4,10.4,74,0.00,CLR,,0.00,622.0,WeatherDisplay:10.37,2013-04-07 15:03:00,
2013-04-07 10:08:00,50.8,42.5,29.92,NW,306,10.4,10.4,73,0.00,CLR,,0.00,638.0,WeatherDisplay:10.37,2013-04-07 15:08:00,
2013-04-07 10:13:00,50.7,42.0,29.92,WNW,302,11.5,11.5,72,0.00,CLR,,0.00,642.0,WeatherDisplay:10.37,2013-04-07 15:13:00,
2013-04-07 10:18:00,50.5,42.2,29.92,WNW,300,7.0,7.0,73,0.00,CLR,,0.00,652.0,WeatherDisplay:10.37,2013-04-07 15:18:00,
2013-04-07 10:23:00,50.8,42.5,29.92,NW,311,11.5,11.5,73,0.00,CLR,,0.00,671.0,WeatherDisplay:10.37,2013-04-07 15:23:00,
2013-04-07 10:28:00,50.9,42.6,29.92,WSW,244,8.1,8.1,73,0.00,CLR,,0.00,680.0,WeatherDisplay:10.37,2013-04-07 15:28:00,
2013-04-07 10:33:00,51.4,42.7,29.92,WNW,298,9.2,9.2,72,0.00,CLR,,0.00,686.0,WeatherDisplay:10.37,2013-04-07 15:33:00,
2013-04-07 10:38:00,51.8,42.7,29.92,NW,308,9.2,9.2,71,0.00,CLR,,0.00,705.0,WeatherDisplay:10.37,2013-04-07 15:38:00,
2013-04-07 10:43:00,52.1,43.0,29.93,West,280,9.2,9.2,71,0.00,CLR,,0.00,714.0,WeatherDisplay:10.37,2013-04-07 15:43:00,
2013-04-07 10:48:00,52.1,42.6,29.93,NW,312,10.4,10.4,70,0.00,CLR,,0.00,719.0,WeatherDisplay:10.37,2013-04-07 15:48:00,
2013-04-07 10:53:00,52.4,42.5,29.93,WNW,287,10.4,10.4,69,0.00,CLR,,0.00,738.0,WeatherDisplay:10.37,2013-04-07 15:53:00,
2013-04-07 10:58:00,52.8,42.9,29.93,WNW,295,10.4,10.4,69,0.00,CLR,,0.00,717.0,WeatherDisplay:10.37,2013-04-07 15:58:00,
2013-04-07 11:03:00,53.2,42.9,29.93,WSW,252,10.4,10.4,68,0.00,CLR,,0.00,758.0,WeatherDisplay:10.37,2013-04-07 16:03:00,
2013-04-07 11:08:00,53.8,42.7,29.93,SW,221,10.4,10.4,66,0.00,CLR,,0.00,765.0,WeatherDisplay:10.37,2013-04-07 16:08:00,
2013-04-07 11:13:00,53.6,42.5,29.93,West,267,8.1,8.1,66,0.00,CLR,,0.00,765.0,WeatherDisplay:10.37,2013-04-07 16:13:00,
2013-04-07 11:18:00,53.5,42.4,29.93,West,260,6.9,6.9,66,0.00,CLR,,0.00,768.0,WeatherDisplay:10.37,2013-04-07 16:18:00,
2013-04-07 11:23:00,53.8,42.7,29.93,WSW,257,8.1,8.1,66,0.00,CLR,,0.00,789.0,WeatherDisplay:10.37,2013-04-07 16:23:00,
2013-04-07 11:28:00,54.2,43.1,29.93,NW,304,11.5,11.5,66,0.00,CLR,,0.00,788.0,WeatherDisplay:10.37,2013-04-07 16:28:00,
2013-04-07 11:33:00,54.6,43.9,29.93,WNW,294,8.0,8.0,67,0.00,CLR,,0.00,800.0,WeatherDisplay:10.37,2013-04-07 16:33:00,
2013-04-07 11:38:00,54.8,42.9,29.94,WSW,249,10.4,10.4,64,0.00,CLR,,0.00,809.0,WeatherDisplay:10.37,2013-04-07 16:38:00,
2013-04-07 11:43:00,55.5,43.1,29.93,WNW,288,11.5,11.5,63,0.00,CLR,,0.00,800.0,WeatherDisplay:10.37,2013-04-07 16:43:00,
2013-04-07 11:48:00,56.1,42.4,29.93,West,279,10.4,10.4,60,0.00,CLR,,0.00,819.0,WeatherDisplay:10.37,2013-04-07 16:48:00,
2013-04-07 11:53:00,55.9,42.6,29.94,WSW,257,8.1,8.1,61,0.00,CLR,,0.00,823.0,WeatherDisplay:10.37,2013-04-07 16:53:00,
2013-04-07 11:58:00,55.9,43.1,29.93,NW,314,11.5,11.5,62,0.00,CLR,,0.00,823.0,WeatherDisplay:10.37,2013-04-07 16:58:00,
2013-04-07 12:04:00,56.5,42.8,29.93,West,281,8.1,8.1,60,0.00,CLR,,0.00,835.0,WeatherDisplay:10.37,2013-04-07 17:04:00,
2013-04-07 12:09:00,56.6,42.4,29.93,West,268,13.0,13.0,59,0.00,CLR,,0.00,837.0,WeatherDisplay:10.37,2013-04-07 17:09:00,
2013-04-07 12:14:00,57.1,42.0,29.93,NW,320,14.0,14.0,57,0.00,CLR,,0.00,768.0,WeatherDisplay:10.37,2013-04-07 17:14:00,
2013-04-07 12:19:00,57.5,41.9,29.93,NW,306,11.5,11.5,56,0.00,CLR,,0.00,782.0,WeatherDisplay:10.37,2013-04-07 17:19:00,
2013-04-07 12:24:00,57.6,40.6,29.93,NW,306,12.7,12.7,53,0.00,CLR,,0.00,854.0,WeatherDisplay:10.37,2013-04-07 17:24:00,
2013-04-07 12:29:00,58.0,41.4,29.93,NW,317,10.0,10.0,54,0.00,CLR,,0.00,858.0,WeatherDisplay:10.37,2013-04-07 17:29:00,
2013-04-07 12:35:00,58.2,40.6,29.93,WNW,303,12.0,12.0,52,0.00,CLR,,0.00,858.0,WeatherDisplay:10.37,2013-04-07 17:35:00,
2013-04-07 12:40:00,58.6,40.5,29.94,West,281,10.4,10.4,51,0.00,CLR,,0.00,865.0,WeatherDisplay:10.37,2013-04-07 17:40:00,
2013-04-07 12:45:00,58.8,40.7,29.94,WNW,298,9.0,9.0,51,0.00,CLR,,0.00,882.0,WeatherDisplay:10.37,2013-04-07 17:45:00,
2013-04-07 12:50:00,59.2,41.1,29.93,WNW,294,11.5,11.5,51,0.00,CLR,,0.00,775.0,WeatherDisplay:10.37,2013-04-07 17:50:00,
2013-04-07 12:55:00,59.4,41.3,29.93,NW,313,9.2,9.2,51,0.00,CLR,,0.00,851.0,WeatherDisplay:10.37,2013-04-07 17:55:00,
2013-04-07 13:00:00,59.5,41.3,29.93,NW,309,11.0,11.0,51,0.00,CLR,,0.00,717.0,WeatherDisplay:10.37,2013-04-07 18:00:00,
2013-04-07 13:05:00,59.1,41.0,29.93,WSW,238,11.5,11.5,51,0.00,CLR,,0.00,671.0,WeatherDisplay:10.37,2013-04-07 18:05:00,
2013-04-07 13:10:00,59.0,40.9,29.93,West,261,16.1,16.1,51,0.00,CLR,,0.00,800.0,WeatherDisplay:10.37,2013-04-07 18:10:00,
2013-04-07 13:15:00,59.0,40.9,29.92,WSW,257,11.0,11.0,51,0.00,CLR,,0.00,610.0,WeatherDisplay:10.37,2013-04-07 18:15:00,
2013-04-07 13:20:00,59.5,40.8,29.93,NW,310,11.5,11.5,50,0.00,CLR,,0.00,737.0,WeatherDisplay:10.37,2013-04-07 18:20:00,
2013-04-07 13:25:00,59.6,40.4,29.93,NW,307,8.1,8.1,49,0.00,CLR,,0.00,568.0,WeatherDisplay:10.37,2013-04-07 18:25:00,
2013-04-07 13:30:00,60.0,40.2,29.93,SW,232,11.5,11.5,48,0.00,CLR,,0.00,800.0,WeatherDisplay:10.37,2013-04-07 18:30:00,
2013-04-07 13:35:00,60.2,41.0,29.93,WNW,286,10.4,10.4,49,0.00,CLR,,0.00,656.0,WeatherDisplay:10.37,2013-04-07 18:35:00,
2013-04-07 13:40:00,60.2,41.0,29.92,WNW,301,8.1,8.1,49,0.00,CLR,,0.00,628.0,WeatherDisplay:10.37,2013-04-07 18:40:00,
2013-04-07 13:45:00,60.1,40.3,29.92,West,259,8.1,8.1,48,0.00,CLR,,0.00,455.0,WeatherDisplay:10.37,2013-04-07 18:45:00,
2013-04-07 13:50:00,60.3,41.0,29.93,West,278,8.1,8.1,49,0.00,CLR,,0.00,443.0,WeatherDisplay:10.37,2013-04-07 18:50:00,
2013-04-07 13:55:00,60.2,41.0,29.93,NW,315,9.2,9.2,49,0.00,CLR,,0.00,299.0,WeatherDisplay:10.37,2013-04-07 18:55:00,
2013-04-07 14:02:00,59.9,40.1,29.93,West,263,10.0,10.0,48,0.00,CLR,,0.00,399.0,WeatherDisplay:10.37,2013-04-07 19:02:00,
2013-04-07 14:07:00,60.0,40.8,29.93,WNW,302,9.2,9.2,49,0.00,CLR,,0.00,469.0,WeatherDisplay:10.37,2013-04-07 19:07:00,
2013-04-07 14:12:00,60.0,41.3,29.93,NW,314,5.8,5.8,50,0.00,CLR,,0.00,506.0,WeatherDisplay:10.37,2013-04-07 19:12:00,
2013-04-07 14:17:00,60.2,41.0,29.92,WSW,250,8.1,8.1,49,0.00,CLR,,0.00,490.0,WeatherDisplay:10.37,2013-04-07 19:17:00,
2013-04-07 14:22:00,60.2,39.9,29.92,WSW,250,8.1,8.1,47,0.00,CLR,,0.00,506.0,WeatherDisplay:10.37,2013-04-07 19:22:00,
2013-04-07 14:28:00,60.9,41.6,29.93,WNW,288,8.1,8.1,49,0.00,CLR,,0.00,682.0,WeatherDisplay:10.37,2013-04-07 19:28:00,
2013-04-07 14:33:00,61.4,41.5,29.92,WSW,238,6.9,6.9,48,0.00,CLR,,0.00,587.0,WeatherDisplay:10.37,2013-04-07 19:33:00,
2013-04-07 14:38:00,61.4,40.4,29.92,WSW,248,9.0,9.0,46,0.00,CLR,,0.00,517.0,WeatherDisplay:10.37,2013-04-07 19:38:00,
2013-04-07 14:43:00,61.3,40.3,29.92,NNW,334,9.2,9.2,46,0.00,CLR,,0.00,490.0,WeatherDisplay:10.37,2013-04-07 19:43:00,
2013-04-07 14:48:00,61.3,40.9,29.92,WNW,297,3.5,3.5,47,0.00,CLR,,0.00,436.0,WeatherDisplay:10.37,2013-04-07 19:48:00,
2013-04-07 14:53:00,61.4,41.0,29.92,NW,311,6.9,6.9,47,0.00,CLR,,0.00,418.0,WeatherDisplay:10.37,2013-04-07 19:53:00,
2013-04-07 14:58:00,61.4,39.9,29.92,NNW,337,4.6,4.6,45,0.00,CLR,,0.00,459.0,WeatherDisplay:10.37,2013-04-07 19:58:00,
2013-04-07 15:03:00,61.4,40.4,29.92,NNW,329,4.6,4.6,46,0.00,CLR,,0.00,366.0,WeatherDisplay:10.37,2013-04-07 20:03:00,
2013-04-07 15:08:00,61.3,40.3,29.92,NW,323,6.0,6.0,46,0.00,CLR,,0.00,343.0,WeatherDisplay:10.37,2013-04-07 20:08:00,
2013-04-07 15:13:00,61.3,40.3,29.92,NW,309,2.3,2.3,46,0.00,CLR,,0.00,417.0,WeatherDisplay:10.37,2013-04-07 20:13:00,
2013-04-07 15:18:00,61.6,40.6,29.92,WNW,290,3.5,3.6,46,0.00,CLR,,0.00,406.0,WeatherDisplay:10.37,2013-04-07 20:18:00,
2013-04-07 15:23:00,61.6,39.5,29.92,West,276,8.1,8.1,44,0.00,CLR,,0.00,345.0,WeatherDisplay:10.37,2013-04-07 20:23:00,
2013-04-07 15:28:00,61.6,40.0,29.92,WNW,303,8.1,8.1,45,0.00,CLR,,0.00,323.0,WeatherDisplay:10.37,2013-04-07 20:28:00,
2013-04-07 15:33:00,61.5,40.5,29.92,WNW,285,3.5,3.5,46,0.00,CLR,,0.00,378.0,WeatherDisplay:10.37,2013-04-07 20:33:00,
2013-04-07 15:38:00,61.6,40.0,29.92,WNW,286,5.8,5.8,45,0.00,CLR,,0.00,418.0,WeatherDisplay:10.37,2013-04-07 20:38:00,
2013-04-07 15:43:00,61.8,40.2,29.92,NW,306,3.5,3.5,45,0.00,CLR,,0.00,323.0,WeatherDisplay:10.37,2013-04-07 20:43:00,
2013-04-07 15:48:00,61.9,40.3,29.92,NNW,342,8.1,8.1,45,0.00,CLR,,0.00,352.0,WeatherDisplay:10.37,2013-04-07 20:48:00,
2013-04-07 15:54:00,61.9,40.3,29.92,NW,319,6.9,6.9,45,0.00,CLR,,0.00,348.0,WeatherDisplay:10.37,2013-04-07 20:54:00,
2013-04-07 15:59:00,62.0,39.8,29.92,NW,312,4.6,4.6,44,0.00,CLR,,0.00,376.0,WeatherDisplay:10.37,2013-04-07 20:59:00,
2013-04-07 16:04:00,62.3,40.7,29.92,NW,311,5.8,5.8,45,0.00,CLR,,0.00,487.0,WeatherDisplay:10.37,2013-04-07 21:04:00,
2013-04-07 16:10:00,63.0,41.3,29.92,WNW,298,8.0,8.0,45,0.00,CLR,,0.00,519.0,WeatherDisplay:10.37,2013-04-07 21:10:00,
2013-04-07 16:15:00,63.3,40.4,29.92,NNW,327,8.1,8.1,43,0.00,CLR,,0.00,529.0,WeatherDisplay:10.37,2013-04-07 21:15:00,
2013-04-07 16:20:00,63.7,41.4,29.92,WNW,296,9.2,9.2,44,0.00,CLR,,0.00,512.0,WeatherDisplay:10.37,2013-04-07 21:20:00,
2013-04-07 16:25:00,63.8,40.9,29.92,WNW,300,6.0,6.0,43,0.00,CLR,,0.00,239.0,WeatherDisplay:10.37,2013-04-07 21:25:00,
2013-04-07 16:30:00,63.9,41.0,29.92,NW,309,5.8,5.8,43,0.00,CLR,,0.00,357.0,WeatherDisplay:10.37,2013-04-07 21:30:00,
2013-04-07 16:35:00,63.9,40.3,29.92,NW,315,5.8,5.8,42,0.00,CLR,,0.00,269.0,WeatherDisplay:10.37,2013-04-07 21:35:00,
2013-04-07 16:40:00,63.7,40.2,29.92,NNE,29,4.6,4.6,42,0.00,CLR,,0.00,366.0,WeatherDisplay:10.37,2013-04-07 21:40:00,
2013-04-07 16:45:00,63.6,40.1,29.92,NW,309,5.0,5.0,42,0.00,CLR,,0.00,299.0,WeatherDisplay:10.37,2013-04-07 21:45:00,
2013-04-07 16:50:00,63.4,40.5,29.92,WSW,257,5.0,5.0,43,0.00,CLR,,0.00,294.0,WeatherDisplay:10.37,2013-04-07 21:50:00,
2013-04-07 16:55:00,63.5,41.2,29.92,NW,317,4.6,4.6,44,0.00,CLR,,0.00,385.0,WeatherDisplay:10.37,2013-04-07 21:55:00,
2013-04-07 17:00:00,63.7,40.2,29.92,NNW,330,3.5,3.5,42,0.00,CLR,,0.00,443.0,WeatherDisplay:10.37,2013-04-07 22:00:00,
2013-04-07 17:05:00,63.8,40.3,29.92,NNW,330,3.5,3.5,42,0.00,CLR,,0.00,202.0,WeatherDisplay:10.37,2013-04-07 22:05:00,
2013-04-07 17:10:00,64.0,40.4,29.92,East,93,6.9,6.9,42,0.00,CLR,,0.00,185.0,WeatherDisplay:10.37,2013-04-07 22:10:00,
2013-04-07 17:15:00,64.1,41.1,29.92,WNW,303,4.6,4.6,43,0.00,CLR,,0.00,162.0,WeatherDisplay:10.37,2013-04-07 22:15:00,
2013-04-07 17:22:00,64.2,41.2,29.92,NNW,336,5.0,5.0,43,0.00,CLR,,0.00,248.0,WeatherDisplay:10.37,2013-04-07 22:22:00,
2013-04-07 17:27:00,64.1,40.5,29.92,NW,307,7.0,7.0,42,0.00,CLR,,0.00,318.0,WeatherDisplay:10.37,2013-04-07 22:27:00,
2013-04-07 17:32:00,63.8,39.6,29.92,NNW,338,4.6,5.0,41,0.00,CLR,,0.00,299.0,WeatherDisplay:10.37,2013-04-07 22:32:00,
2013-04-07 17:37:00,63.7,40.2,29.92,NNE,22,4.0,4.0,42,0.00,CLR,,0.00,281.0,WeatherDisplay:10.37,2013-04-07 22:37:00,
2013-04-07 17:42:00,63.6,40.7,29.92,North,350,3.5,3.5,43,0.00,CLR,,0.00,257.0,WeatherDisplay:10.37,2013-04-07 22:42:00,
2013-04-07 17:47:00,63.7,39.5,29.92,NNW,339,3.5,3.5,41,0.00,CLR,,0.00,244.0,WeatherDisplay:10.37,2013-04-07 22:47:00,
2013-04-07 17:52:00,63.9,39.7,29.92,NNW,346,5.0,5.0,41,0.00,CLR,,0.00,227.0,WeatherDisplay:10.37,2013-04-07 22:52:00,
2013-04-07 17:57:00,63.8,40.3,29.92,NNW,340,5.8,5.8,42,0.00,CLR,,0.00,186.0,WeatherDisplay:10.37,2013-04-07 22:57:00,
2013-04-07 18:02:00,63.6,40.7,29.92,WNW,288,1.1,1.1,43,0.00,CLR,,0.00,167.0,WeatherDisplay:10.37,2013-04-07 23:02:00,
2013-04-07 18:08:00,63.7,40.2,29.92,NNE,21,3.0,3.0,42,0.00,CLR,,0.00,146.0,WeatherDisplay:10.37,2013-04-07 23:08:00,
2013-04-07 18:13:00,63.4,39.9,29.91,NNE,16,6.0,6.0,42,0.00,CLR,,0.00,102.0,WeatherDisplay:10.37,2013-04-07 23:13:00,
2013-04-07 18:18:00,62.2,41.2,29.91,NNE,24,12.0,12.0,46,0.00,CLR,,0.00,121.0,WeatherDisplay:10.37,2013-04-07 23:18:00,
2013-04-07 18:23:00,60.4,40.6,29.91,NE,41,11.5,11.5,48,0.00,CLR,,0.00,46.0,WeatherDisplay:10.37,2013-04-07 23:23:00,
2013-04-07 18:28:00,59.1,40.5,29.91,NE,49,11.5,11.5,50,0.00,CLR,,0.00,42.0,WeatherDisplay:10.37,2013-04-07 23:28:00,
2013-04-07 18:33:00,58.1,40.6,29.91,NE,50,10.4,10.4,52,0.00,CLR,,0.00,37.0,WeatherDisplay:10.37,2013-04-07 23:33:00,
2013-04-07 18:38:00,57.4,40.4,29.91,NE,36,12.0,12.0,53,0.00,CLR,,0.00,35.0,WeatherDisplay:10.37,2013-04-07 23:38:00,
2013-04-07 18:43:00,56.5,40.0,29.92,NNE,28,12.7,12.7,54,0.00,CLR,,0.00,32.0,WeatherDisplay:10.37,2013-04-07 23:43:00,
2013-04-07 18:48:00,55.7,39.8,29.92,NNE,30,11.5,11.5,55,0.00,CLR,,0.00,28.0,WeatherDisplay:10.37,2013-04-07 23:48:00,
2013-04-07 18:53:00,54.8,39.4,29.91,NE,42,11.5,11.5,56,0.00,CLR,,0.00,25.0,WeatherDisplay:10.37,2013-04-07 23:53:00,
2013-04-07 18:58:00,53.9,39.0,29.92,NNE,30,11.5,11.5,57,0.00,CLR,,0.00,21.0,WeatherDisplay:10.37,2013-04-07 23:58:00,
2013-04-07 19:03:00,53.1,39.1,29.91,NNE,27,11.5,11.5,59,0.00,CLR,,0.00,18.0,WeatherDisplay:10.37,2013-04-08 00:03:00,
2013-04-07 19:08:00,52.2,38.3,29.92,NE,36,10.4,10.4,59,0.00,CLR,,0.00,12.0,WeatherDisplay:10.37,2013-04-08 00:08:00,
2013-04-07 19:13:00,51.2,38.2,29.91,NNE,31,9.2,9.2,61,0.00,CLR,,0.00,9.0,WeatherDisplay:10.37,2013-04-08 00:13:00,
2013-04-07 19:18:00,50.3,37.8,29.92,NE,45,11.5,11.5,62,0.00,CLR,,0.00,5.0,WeatherDisplay:10.37,2013-04-08 00:18:00,
2013-04-07 19:23:00,49.5,37.4,29.91,NNE,32,11.5,11.5,63,0.00,CLR,,0.00,0.0,WeatherDisplay:10.37,2013-04-08 00:23:00,
2013-04-07 19:28:00,48.9,37.3,29.92,NE,40,10.4,10.4,64,0.00,CLR,,0.00,0.0,WeatherDisplay:10.37,2013-04-08 00:28:00,
2013-04-07 19:33:00,48.2,37.0,29.92,NE,40,11.5,11.5,65,0.00,CLR,,0.00,0.0,WeatherDisplay:10.37,2013-04-08 00:33:00,
2013-04-07 19:38:00,47.5,36.7,29.92,NNE,14,11.5,11.5,66,0.00,CLR,,0.00,0.0,WeatherDisplay:10.37,2013-04-08 00:38:00,
2013-04-07 19:43:00,46.9,36.5,29.92,NE,34,8.1,8.1,67,0.00,CLR,,0.00,0.0,WeatherDisplay:10.37,2013-04-08 00:43:00,
2013-04-07 19:48:00,46.3,36.3,29.92,NNE,28,9.2,9.2,68,0.00,CLR,,0.00,0.0,WeatherDisplay:10.37,2013-04-08 00:48:00,
2013-04-07 19:53:00,46.0,36.0,29.92,NNE,30,10.4,10.4,68,0.00,CLR,,0.00,0.0,WeatherDisplay:10.37,2013-04-08 00:53:00,
2013-04-07 19:59:00,45.5,35.9,29.92,NE,35,10.4,10.4,69,0.00,CLR,,0.00,0.0,WeatherDisplay:10.37,2013-04-08 00:59:00,
2013-04-07 20:04:00,45.1,35.9,29.92,NNE,33,8.1,8.1,70,0.00,CLR,,0.00,0.0,WeatherDisplay:10.37,2013-04-08 01:04:00,
2013-04-07 20:09:00,44.6,35.8,29.92,NNE,28,9.2,9.2,71,0.00,CLR,,0.00,0.0,WeatherDisplay:10.37,2013-04-08 01:09:00,
2013-04-07 20:14:00,44.2,35.4,29.93,NNE,27,8.1,8.1,71,0.00,CLR,,0.00,0.0,WeatherDisplay:10.37,2013-04-08 01:14:00,
2013-04-07 20:19:00,43.8,35.4,29.93,NE,42,10.4,10.4,72,0.00,CLR,,0.00,0.0,WeatherDisplay:10.37,2013-04-08 01:19:00,
2013-04-07 20:24:00,43.5,35.1,29.93,NE,50,6.9,6.9,72,0.00,CLR,,0.00,0.0,WeatherDisplay:10.37,2013-04-08 01:24:00,
2013-04-07 20:29:00,43.3,35.2,29.93,NNE,30,8.1,8.1,73,0.00,CLR,,0.00,0.0,WeatherDisplay:10.37,2013-04-08 01:29:00,
2013-04-07 20:34:00,43.1,35.0,29.93,NE,44,9.2,9.2,73,0.00,CLR,,0.00,0.0,WeatherDisplay:10.37,2013-04-08 01:34:00,
2013-04-07 20:39:00,42.8,34.7,29.93,NE,39,8.1,8.1,73,0.00,CLR,,0.00,0.0,WeatherDisplay:10.37,2013-04-08 01:39:00,
2013-04-07 20:44:00,42.4,34.7,29.93,NNE,28,11.5,11.5,74,0.00,CLR,,0.00,0.0,WeatherDisplay:10.37,2013-04-08 01:44:00,
2013-04-07 20:49:00,42.2,34.8,29.93,NNE,26,11.0,11.0,75,0.00,CLR,,0.00,0.0,WeatherDisplay:10.37,2013-04-08 01:49:00,
2013-04-07 20:54:00,41.9,34.9,29.93,NNE,30,9.2,9.2,76,0.00,CLR,,0.00,0.0,WeatherDisplay:10.37,2013-04-08 01:54:00,
2013-04-07 20:59:00,41.6,34.6,29.94,NE,36,6.9,6.9,76,0.00,CLR,,0.00,0.0,WeatherDisplay:10.37,2013-04-08 01:59:00,
2013-04-07 21:05:00,41.3,34.3,29.93,NE,34,8.1,8.1,76,0.00,CLR,,0.00,0.0,WeatherDisplay:10.37,2013-04-08 02:05:00,
2013-04-07 21:10:00,41.1,34.4,29.94,NE,43,9.0,9.0,77,0.00,CLR,,0.00,0.0,WeatherDisplay:10.37,2013-04-08 02:10:00,
2013-04-07 21:15:00,41.0,34.3,29.94,NE,38,8.1,8.1,77,0.00,CLR,,0.00,0.0,WeatherDisplay:10.37,2013-04-08 02:15:00,
2013-04-07 21:20:00,40.8,34.1,29.94,NNE,30,6.9,6.9,77,0.00,CLR,,0.00,0.0,WeatherDisplay:10.37,2013-04-08 02:20:00,
2013-04-07 21:25:00,40.6,34.3,29.93,NE,38,7.0,7.0,78,0.00,CLR,,0.00,0.0,WeatherDisplay:10.37,2013-04-08 02:25:00,
2013-04-07 21:30:00,40.5,34.2,29.93,NE,41,7.0,7.0,78,0.00,CLR,,0.00,0.0,WeatherDisplay:10.37,2013-04-08 02:30:00,
2013-04-07 21:35:00,40.5,34.2,29.93,NE,44,8.1,8.1,78,0.00,CLR,,0.00,0.0,WeatherDisplay:10.37,2013-04-08 02:35:00,
2013-04-07 21:40:00,40.4,34.1,29.93,NE,36,5.8,5.8,78,0.00,CLR,,0.00,0.0,WeatherDisplay:10.37,2013-04-08 02:40:00,
2013-04-07 21:45:00,40.1,34.1,29.93,NE,34,6.0,6.0,79,0.00,CLR,,0.00,0.0,WeatherDisplay:10.37,2013-04-08 02:45:00,
2013-04-07 21:50:00,39.9,33.9,29.93,NE,38,5.8,5.8,79,0.00,CLR,,0.00,0.0,WeatherDisplay:10.37,2013-04-08 02:50:00,
2013-04-07 21:56:00,39.6,33.9,29.93,NE,44,4.6,4.6,80,0.00,CLR,,0.00,0.0,WeatherDisplay:10.37,2013-04-08 02:56:00,
2013-04-07 22:01:00,39.6,33.9,29.94,NE,54,4.6,4.6,80,0.00,CLR,,0.00,0.0,WeatherDisplay:10.37,2013-04-08 03:01:00,
2013-04-07 22:06:00,39.6,33.9,29.94,NE,55,3.5,3.5,80,0.00,CLR,,0.00,0.0,WeatherDisplay:10.37,2013-04-08 03:06:00,
2013-04-07 22:11:00,39.5,33.8,29.93,NE,51,5.0,5.0,80,0.00,CLR,,0.00,0.0,WeatherDisplay:10.37,2013-04-08 03:11:00,
2013-04-07 22:16:00,39.5,33.8,29.93,ENE,64,4.0,4.0,80,0.00,CLR,,0.00,0.0,WeatherDisplay:10.37,2013-04-08 03:16:00,
2013-04-07 22:22:00,39.6,33.9,29.93,ENE,68,5.8,5.8,80,0.00,CLR,,0.00,0.0,WeatherDisplay:10.37,2013-04-08 03:22:00,
2013-04-07 22:27:00,39.6,34.2,29.93,ENE,67,3.5,3.5,81,0.00,CLR,,0.00,0.0,WeatherDisplay:10.37,2013-04-08 03:27:00,
2013-04-07 22:32:00,39.6,34.2,29.93,NE,47,4.6,4.6,81,0.00,CLR,,0.00,0.0,WeatherDisplay:10.37,2013-04-08 03:32:00,
2013-04-07 22:37:00,39.6,34.2,29.93,ENE,61,6.9,6.9,81,0.00,CLR,,0.00,0.0,WeatherDisplay:10.37,2013-04-08 03:37:00,
2013-04-07 22:42:00,39.6,33.9,29.92,ENE,70,4.6,4.6,80,0.00,CLR,,0.00,0.0,WeatherDisplay:10.37,2013-04-08 03:42:00,
2013-04-07 22:47:00,39.5,34.2,29.92,ENE,74,3.5,3.5,81,0.00,CLR,,0.00,0.0,WeatherDisplay:10.37,2013-04-08 03:47:00,
2013-04-07 22:52:00,39.3,34.0,29.92,ENE,61,3.5,3.5,81,0.00,CLR,,0.00,0.0,WeatherDisplay:10.37,2013-04-08 03:52:00,
2013-04-07 22:58:00,39.2,33.9,29.92,NE,55,4.6,4.6,81,0.00,CLR,,0.00,0.0,WeatherDisplay:10.37,2013-04-08 03:58:00,
2013-04-07 23:00:00,39.1,33.8,29.92,ENE,62,3.5,3.5,81,0.00,CLR,,0.00,0.0,WeatherDisplay:10.37,2013-04-08 04:00:00,
2013-04-07 23:01:00,39.1,33.8,29.92,ENE,62,3.5,3.5,81,0.00,CLR,,0.00,0.0,WeatherDisplay:10.37,2013-04-08 04:01:00,
2013-04-07 23:07:00,38.9,33.6,29.92,ENE,67,4.0,4.0,81,0.00,CLR,,0.00,0.0,WeatherDisplay:10.37,2013-04-08 04:07:00,
2013-04-07 23:12:00,38.8,33.8,29.92,ENE,67,3.5,3.5,82,0.00,CLR,,0.00,0.0,WeatherDisplay:10.37,2013-04-08 04:12:00,
2013-04-07 23:17:00,38.8,33.8,29.92,ENE,70,3.5,3.5,82,0.00,CLR,,0.00,0.0,WeatherDisplay:10.37,2013-04-08 04:17:00,
2013-04-07 23:22:00,38.7,33.7,29.91,ENE,72,3.5,3.5,82,0.00,CLR,,0.00,0.0,WeatherDisplay:10.37,2013-04-08 04:22:00,
2013-04-07 23:27:00,38.6,33.6,29.91,ENE,65,3.5,3.5,82,0.00,CLR,,0.00,0.0,WeatherDisplay:10.37,2013-04-08 04:27:00,
2013-04-07 23:32:00,38.5,33.5,29.91,NE,56,3.5,3.5,82,0.00,CLR,,0.00,0.0,WeatherDisplay:10.37,2013-04-08 04:32:00,
2013-04-07 23:37:00,38.4,33.4,29.91,NE,44,3.5,3.5,82,0.00,CLR,,0.00,0.0,WeatherDisplay:10.37,2013-04-08 04:37:00,
2013-04-07 23:43:00,38.2,33.2,29.91,NE,45,3.5,3.5,82,0.00,CLR,,0.00,0.0,WeatherDisplay:10.37,2013-04-08 04:43:00,
2013-04-07 23:48:00,38.0,33.3,29.91,ENE,58,3.5,3.5,83,0.00,CLR,,0.00,0.0,WeatherDisplay:10.37,2013-04-08 04:48:00,
2013-04-07 23:53:00,38.1,33.7,29.90,ENE,58,3.5,3.5,84,0.00,CLR,,0.00,0.0,WeatherDisplay:10.37,2013-04-08 04:53:00,
2013-04-07 23:58:00,38.3,33.9,29.90,ENE,58,3.5,3.5,84,0.00,CLR,,0.00,0.0,WeatherDisplay:10.37,2013-04-08 04:58:00,